Вернуться в каталог

COSMOS 2251 DEB

АктивенLEO
NORAD 34571·DEBRIS·🇷🇺 Russia

Запущен Jun 16, 1993 с Plesetsk Cosmodrome

Loading…

Ближайшие Пролёты (ближайшие 24 часа)

TLE

СвежийSource: Space-Track

Эпоха: Sep 14, 2026, 08:22 UTC

1 34571U 93036VH  26257.34899273  .00004192  00000-0  99281-3 0  9996
2 34571  74.0394  23.7697 0063295 352.7251   7.2985 14.53146606912923

Отслеживайте COSMOS 2251 DEB в реальном времени с AllMySat

Download on the App Store